Location: Newark
(36.9825°N, 30.4647°E)
Time: 03:06:10
(UTC+00:00)

Hubble Space Telescope - Pass Details

Date: 29 October 2019
Orbit: 536 x 540 km, 28.5° (Epoch: 17 November)

Event Time Altitude Azimuth Distance (km) Brightness Sun altitude
Exits shadow 03:06:41 - 214° (SW) 2,094 3.5 -14.9°
Reaches altitude 10° 03:07:51 10° 203° (SSW) 1,776 3.2 -14.7°
Maximum altitude 03:10:25 16° 165° (SSE) 1,433 3.2 -14.2°
Drops below altitude 10° 03:12:58 10° 126° (SE) 1,778 4.4 -13.7°
Sets 03:15:55 0° 104° (ESE) 2,669 6.3 -13.1°
